Flag for Germany Weather past 2 weeks in Bramsche, Lower Saxony, Germany

Now
43 °F

Low clouds.


Feels Like: 40 °F
Forecast: 36 / 50 °F
Wind: 5 mph from Southwest

Location: Muenster / Osnabrueck

Current Time: Mar 27, 2015 at 1:25:10 AM

Latest Report: Mar 27, 2015 at 1:00 AM


Visibility: 7 mi

Pressure: 29.75 "Hg

Humidity: 90%

Dew point: 40 °F

Location of BramscheLocation

Historic Weather in Bramsche — Graph

°F

Bramsche temperature yesterday

Maximum temperature yesterday: 47 °F (at 3:00 PM)
Minimum temperature yesterday: 40 °F (at 4:00 AM)
Average temperature yesterday: 42 °F

Past Weeks' High & Low Weather Summary

 TemperatureHumidityPressure
High62 °F (Mar 18, 3:00 PM)100% (Mar 12, 5:00 AM)30.51 "Hg (Mar 12, 5:00 AM)
Low27 °F (Mar 12, 7:00 AM)40% (Mar 17, 3:00 PM)29.66 "Hg (Mar 25, 5:00 AM)
Average42 °F78%30.17 "Hg
* Reported Midnight between Mar 11 and Mar 12 — Midnight between Mar 26 and Mar 27, Bramsche, Weather by CustomWeather, © 2015

Note: Actual official high and low records may vary slightly from our data, if they occured in-between our weather recording intervals... More about our weather records

Advertising

Bramsche weather history for previous 24 hours

 ConditionsComfort  
Time TempWeatherWind HumidityBarometerVisibility
12:00 AM
Fri, Mar 27
42 °FLow clouds.5 mph92%29.73 "Hg7 mi
11:00 PM
Thu, Mar 26
41 °FLight rain. Overcast.5 mph91%29.72 "Hg7 mi
10:00 PM41 °FLight rain. Overcast.6 mph85%29.72 "Hg8 mi
9:00 PM41 °FLight rain. Overcast.6 mph82%29.72 "Hg12 mi
8:00 PM40 °FLight rain. Overcast.2 mph87%29.73 "Hg12 mi
7:00 PM40 °FOvercast.2 mph87%29.74 "Hg9 mi
6:00 PM42 °FLight rain. Overcast.5 mph75%29.73 "Hg12 mi
5:00 PM42 °FLight rain. Low clouds.6 mph73%29.73 "Hg12 mi
4:00 PM47 °FOvercast.5 mph50%29.72 "Hg19 mi
3:00 PM47 °FOvercast.5 mph52%29.72 "Hg12 mi
2:00 PM47 °FOvercast.6 mph53%29.74 "Hg12 mi
1:00 PM46 °FOvercast.6 mph56%29.75 "Hg22 mi
12:00 PM45 °FOvercast.5 mph62%29.77 "Hg22 mi
11:00 AM43 °FOvercast.3 mph62%29.78 "Hg19 mi
10:00 AM43 °FOvercast.3 mph67%29.79 "Hg16 mi
9:00 AM42 °FOvercast.2 mph77%29.79 "Hg12 mi
8:00 AM41 °FOvercast.2 mph83%29.79 "Hg9 mi
7:00 AM40 °FOvercast.3 mph87%29.78 "Hg7 mi
6:00 AM40 °FOvercast.2 mph86%29.78 "Hg12 mi
5:00 AM40 °FOvercast.2 mph85%29.78 "Hg12 mi
4:00 AM40 °FOvercast.2 mph86%29.77 "Hg12 mi
3:00 AM40 °FOvercast.3 mph84%29.77 "Hg12 mi
2:00 AM41 °FOvercast.5 mph83%29.77 "Hg12 mi
1:00 AM41 °FOvercast.3 mph85%29.77 "Hg12 mi
Weather by CustomWeather, © 2015

See weather overviewHow to use our weather pages